Location: Cuiry
(49.3858°N, 3.7708°E)
Time: 15:56:33
(UTC+00:00)

PSLV R/B - Pass Details

Date: 13 April 2026
Orbit: 560 x 585 km, 98.0° (Epoch: 14 May)

Event Time Altitude Azimuth Distance (km) Brightness Sun altitude
Rises 19:06:28 0° 185° (S) 2,758 6.7 -5.8°
Reaches altitude 10° 19:08:42 10° 193° (SSW) 1,871 5.9 -6.1°
Maximum altitude 19:12:30 38° 262° (W) 889 5.0 -6.7°
Drops below altitude 10° 19:16:21 10° 331° (NNW) 1,901 6.9 -7.2°
Sets 19:18:39 0° 340° (NNW) 2,810 7.7 -7.6°
